GFSFLT1_700_temp_267.txt.gz
Temp
7 7 7 8 8 8 8 8 8 9 9 9 10 10 10 10 11 10 10 10 10 10 10 9 9 9 9 9 8 8 8 7
6 7 7 7 8 8 8 8 9 9 8 9 9 10 11 10 10 11 10 10 10 10 10 10 9 9 9 9 8 8 8 8
6 6 7 8 7 8 8 8 8 9 9 9 9 10 10 10 10 10 10 10 10 10 10 10 9 9 9 9 9 8 8 8
5 6 7 7 7 8 8 8 8 9 8 9 8 9 9 9 10 10 10 10 9 10 9 9 9 9 9 9 9 9 8 8
4 6 6 7 7 7 6 6 8 8 8 8 8 9 9 10 10 10 10 10 9 9 9 9 9 9 9 9 9 9 8 8
3 3 6 6 6 7 6 5 5 7 8 8 8 8 9 9 9 10 10 10 10 9 9 8 9 9 9 9 9 9 9 8
2 3 3 6 6 7 7 6 5 5 6 8 8 8 8 9 9 10 10 11 10 10 9 8 8 9 9 9 9 9 9 9
1 2 3 4 5 6 7 6 6 5 6 7 8 8 8 9 9 10 10 11 11 11 10 9 9 9 10 9 9 9 9 9
-0 1 2 3 4 4 5 7 6 5 5 6 7 7 9 9 9 10 10 11 11 11 10 10 9 9 9 10 9 9 9 9
-0 1 1 2 3 4 3 5 6 6 6 5 7 7 8 9 10 10 11 11 11 11 11 10 9 9 9 9 9 9 9 9
-1 0 1 2 2 3 3 4 6 6 5 7 7 6 6 8 9 10 10 11 11 11 11 10 10 10 9 9 10 10 9 9
-2 -2 -0 1 2 2 3 3 4 5 5 4 5 5 4 6 8 9 10 11 11 11 10 10 10 10 10 10 10 10 10 9
-3 -3 -2 -1 0 2 2 3 3 3 3 3 4 4 5 5 6 8 9 10 11 11 10 9 10 10 10 10 10 10 10 10
-5 -4 -3 -4 -1 0 2 2 2 3 3 2 4 6 2 5 6 8 8 7 9 10 10 10 10 9 10 10 10 10 10 10
-5 -5 -5 -4 -4 -2 1 2 2 3 3 2 3 4 3 2 4 6 7 7 7 8 10 10 10 10 9 10 10 10 10 10
-6 -6 -6 -5 -5 -4 -3 1 2 2 3 2 3 3 4 4 6 5 5 6 7 7 8 9 9 9 9 9 9 9 9 9
-7 -6 -7 -7 -6 -5 -4 -3 -2 0 1 2 3 4 5 4 6 7 6 5 6 7 7 8 9 9 9 9 9 9 9 9
-7 -7 -7 -7 -6 -5 -5 -4 -3 -2 -0 1 2 2 4 5 5 5 6 7 7 6 6 7 8 9 9 9 9 9 9 9
-8 -8 -7 -6 -8 -8 -6 -6 -4 -4 -3 0 2 1 2 3 4 5 6 6 6 7 6 7 7 8 9 10 10 9 9 10

GFSFLT1_700_temp_270.txt.gz
Temp
6 6 7 7 8 8 7 7 8 8 8 9 8 9 10 10 10 10 10 10 10 10 10 9 9 9 9 9 8 8 7 7
5 6 6 6 7 7 8 7 8 8 8 9 9 8 9 10 10 10 10 10 10 10 10 9 9 9 9 9 8 8 8 8
4 5 5 6 6 6 6 7 7 7 8 8 9 8 9 9 10 10 10 10 10 10 10 10 9 9 9 9 9 9 8 8
4 4 5 5 6 6 6 6 7 8 7 8 7 7 7 8 9 10 10 10 10 10 10 10 10 9 9 9 9 9 9 8
3 4 5 5 6 6 5 5 6 7 7 6 7 8 8 8 9 10 10 10 10 10 10 10 9 9 9 9 9 9 8 8
1 3 4 6 6 6 6 5 4 6 6 6 6 7 7 8 8 9 10 10 10 10 10 10 10 9 9 9 9 9 9 8
-1 1 3 4 5 5 6 6 5 4 6 6 6 6 6 7 7 8 9 10 10 10 10 10 9 9 9 9 9 9 9 9
-1 0 1 3 4 4 5 6 6 5 4 6 6 6 6 6 7 8 9 9 10 10 10 10 10 9 9 9 9 9 9 9
-2 -1 0 1 3 3 3 5 5 5 5 5 6 6 6 6 7 6 7 8 9 10 10 10 9 9 9 9 9 9 9 9
-3 -2 -1 0 1 2 3 3 3 4 5 6 5 6 6 6 6 7 7 7 8 9 10 10 10 9 9 9 9 9 9 9
-3 -2 -2 -1 0 1 3 3 3 3 4 5 6 5 5 7 7 6 6 6 7 8 9 9 10 9 9 9 9 9 9 9
-4 -3 -3 -2 -1 1 1 3 3 3 3 3 4 5 5 5 6 6 5 6 6 7 8 9 10 10 9 9 9 9 9 9
-4 -4 -3 -2 -1 -1 0 2 3 3 3 3 3 4 5 4 4 5 5 5 5 6 7 9 9 10 9 9 9 9 10 10
-5 -5 -5 -4 -3 -3 -2 -0 1 3 3 3 3 3 4 4 4 6 4 4 5 5 6 8 9 9 9 9 9 10 10 10
-6 -6 -5 -5 -5 -5 -5 -3 -0 2 3 2 2 2 3 3 4 5 6 5 3 5 6 7 9 10 9 9 9 9 9 9
-6 -6 -5 -5 -5 -6 -6 -5 -5 -1 1 -0 1 1 1 3 4 5 5 5 5 4 6 6 7 8 9 8 8 8 9 9
-7 -6 -5 -5 -6 -6 -7 -6 -5 -5 -4 -4 -4 -1 1 2 2 5 6 5 3 5 5 6 6 6 7 8 8 9 9 9
-7 -6 -6 -6 -6 -7 -7 -8 -8 -7 -5 -4 -4 -2 -0 1 2 3 2 2 2 4 6 5 5 6 6 7 6 7 8 9
-7 -7 -6 -6 -6 -6 -6 -7 -8 -8 -7 -5 -4 -4 -3 1 2 1 1 1 3 3 4 4 5 5 3 5 6 6 6 8

GFSFLT1_700_temp_273.txt.gz
Temp
5 6 6 6 7 7 7 7 7 7 7 7 7 9 9 9 9 10 10 10 9 9 9 9 9 9 8 8 8 8 7 7
3 4 5 5 5 7 7 7 7 7 7 7 7 7 9 10 9 10 10 10 10 9 9 9 9 9 9 9 8 8 8 7
2 3 3 4 5 5 6 7 7 7 6 6 6 7 8 8 9 9 9 9 10 10 10 9 9 9 9 9 9 8 8 8
1 2 3 3 4 4 5 5 6 7 7 7 7 6 6 7 8 8 9 10 10 10 10 9 9 9 9 9 9 9 8 8
-1 0 2 3 3 4 4 4 5 6 6 7 8 8 6 7 7 8 8 9 10 10 10 9 9 9 9 9 9 9 8 8
-1 0 1 1 3 4 4 4 5 5 5 6 7 8 8 7 7 7 8 8 8 9 9 9 9 9 9 9 9 9 9 8
-3 -2 -1 1 2 3 4 4 4 5 5 6 6 7 7 7 7 6 7 7 7 8 9 9 9 9 9 9 9 9 9 9
-2 -2 -1 -0 1 2 3 3 4 5 5 5 5 6 6 7 7 7 6 7 6 7 8 9 9 9 9 9 9 9 9 9
-3 -3 -2 -1 0 1 2 2 3 3 5 5 5 5 6 6 6 7 7 7 7 6 6 7 8 9 9 9 9 9 9 9
-4 -3 -3 -2 -1 -0 1 2 2 2 2 4 4 4 5 5 6 6 6 7 7 7 6 6 7 7 8 8 9 9 9 9
-4 -4 -3 -2 -2 -1 -0 1 2 2 2 2 3 4 4 4 5 5 5 6 7 7 7 6 6 6 7 7 8 8 8 8
-5 -4 -4 -4 -3 -2 -2 -1 1 2 2 2 2 3 3 4 4 5 5 6 6 6 6 6 6 6 6 6 7 7 8 8
-6 -6 -5 -5 -4 -3 -2 -2 -0 1 2 2 2 2 3 3 3 4 4 5 5 5 5 6 6 6 6 6 7 7 7 8
-7 -7 -6 -5 -5 -5 -4 -4 -2 -0 1 2 2 2 2 2 3 3 3 3 4 4 4 5 5 6 6 7 6 7 7 7
-7 -7 -7 -6 -5 -5 -5 -4 -4 -3 -1 1 1 1 2 2 2 3 3 3 3 3 4 4 3 4 6 6 6 6 7 7
-7 -7 -7 -6 -6 -6 -6 -6 -6 -5 -4 -3 -1 -1 1 1 1 2 3 3 3 3 4 4 3 3 2 4 5 6 6 7
-8 -8 -7 -7 -6 -6 -6 -6 -6 -6 -6 -5 -4 -3 -3 -2 1 -0 1 2 3 3 4 5 5 5 3 4 4 6 6 6
-8 -8 -7 -7 -7 -6 -6 -6 -6 -6 -6 -6 -6 -5 -5 -5 -4 -1 -0 1 2 3 3 4 6 6 5 5 7 5 5 6
-8 -7 -8 -8 -8 -7 -6 -6 -6 -6 -6 -6 -6 -6 -6 -5 -5 -3 -2 -1 1 2 2 3 4 4 4 4 4 5 5 5

GFSFLT1_700_temp_276.txt.gz
Temp
2 3 4 6 6 6 7 7 7 7 7 6 6 6 6 8 9 9 9 9 9 9 9 8 8 8 8 8 8 7 7 7
0 1 3 4 4 5 6 7 7 7 7 7 7 6 6 7 8 8 8 8 8 9 9 8 8 8 8 8 8 8 8 7
-1 -0 1 2 3 3 4 5 6 7 7 7 7 7 6 6 7 8 8 8 8 8 9 9 9 9 8 8 8 8 8 8
-2 -1 -0 1 1 2 3 4 5 6 6 7 7 7 7 7 6 7 8 8 8 8 8 9 8 9 9 8 8 8 8 8
-3 -2 -1 0 1 1 3 3 3 4 5 6 6 7 7 7 7 6 6 7 7 7 8 8 8 8 9 9 8 8 8 8
-3 -3 -2 -1 -0 1 1 2 3 3 4 4 6 6 7 7 7 6 6 6 6 6 6 7 7 8 8 8 8 9 8 8
-4 -4 -3 -3 -1 -1 0 2 2 3 3 4 4 5 6 6 7 7 6 7 7 6 6 6 7 7 8 8 8 8 8 8
-4 -3 -3 -3 -2 -1 -1 -0 1 2 2 3 4 4 5 5 6 6 7 7 8 7 6 6 6 7 7 8 8 8 8 8
-4 -4 -4 -3 -3 -3 -1 -1 -0 1 2 1 2 4 4 4 5 5 6 6 7 7 7 6 6 6 6 7 7 7 8 8
-5 -5 -4 -4 -4 -3 -2 -1 -0 -0 1 2 1 2 3 4 4 5 5 5 6 7 7 6 6 6 6 6 7 7 7 7
-5 -5 -5 -5 -5 -4 -3 -2 -1 0 -0 1 1 1 2 3 3 4 4 5 5 5 6 6 5 6 6 6 6 7 7 7
-6 -6 -6 -6 -6 -5 -4 -4 -3 -2 -0 0 1 1 1 2 3 3 3 4 5 5 5 6 6 6 5 5 5 5 6 6
-7 -7 -7 -7 -6 -5 -5 -5 -4 -3 -2 -1 0 1 1 1 2 3 3 3 4 4 5 5 5 5 6 6 5 5 5 6
-8 -7 -7 -7 -6 -5 -5 -5 -5 -4 -3 -2 -1 -0 1 1 2 2 2 3 3 3 4 4 4 5 4 5 5 5 5 5
-7 -8 -8 -7 -7 -6 -5 -5 -5 -5 -5 -4 -3 -2 -1 1 2 1 2 2 3 3 2 3 3 4 4 3 5 5 5 5
-7 -7 -7 -7 -7 -6 -6 -6 -6 -5 -5 -5 -6 -5 -3 -1 0 1 0 2 2 2 2 3 3 3 3 3 3 3 3 4
-7 -8 -8 -7 -7 -6 -6 -6 -6 -6 -5 -5 -5 -6 -5 -3 -2 -1 -0 -1 0 2 2 2 3 3 3 3 3 4 4 4
-8 -8 -8 -8 -7 -7 -7 -6 -6 -6 -6 -5 -5 -6 -6 -6 -4 -3 -1 -1 -2 -1 2 2 1 2 2 3 3 4 4 4
-8 -8 -8 -8 -8 -7 -7 -7 -7 -7 -6 -6 -5 -5 -6 -5 -6 -6 -6 -6 -5 -4 -2 -0 0 0 1 2 3 3 4 5

GFSFLT1_700_temp_279.txt.gz
Temp
2 2 2 3 3 4 5 6 6 6 6 7 7 7 6 7 8 7 7 7 8 8 8 8 7 7 7 7 7 7 7 7
-2 -1 1 2 2 3 3 4 6 6 6 6 7 7 7 6 7 7 7 7 7 8 8 8 8 8 8 7 7 7 7 7
-2 -2 -1 -1 1 2 2 2 3 5 6 6 6 7 7 7 6 6 6 7 7 7 8 8 7 7 8 8 8 8 7 7
-3 -3 -2 -2 -1 1 1 2 2 3 4 5 6 6 6 6 7 5 7 7 7 7 8 8 8 7 7 7 7 7 7 7
-4 -3 -3 -3 -2 -1 0 1 2 2 3 4 5 5 6 6 6 6 6 7 7 7 7 7 7 7 8 8 7 7 7 7
-3 -3 -3 -3 -2 -2 -1 -0 1 2 2 3 3 4 4 5 6 6 6 5 6 7 7 7 7 7 7 7 8 7 7 7
-4 -3 -3 -3 -3 -3 -2 -1 -0 1 2 2 3 3 4 4 5 5 6 4 4 4 5 5 6 7 7 7 7 7 7 7
-5 -4 -4 -3 -3 -3 -3 -2 -1 -0 0 1 2 3 3 4 4 5 5 5 4 4 4 4 5 5 6 6 7 7 7 7
-5 -5 -5 -4 -3 -3 -3 -3 -3 -2 -0 -0 1 2 3 3 4 4 4 5 4 4 4 4 3 4 5 5 5 6 6 7
-5 -5 -5 -5 -5 -4 -3 -3 -3 -3 -2 -1 -0 -0 1 3 3 4 4 4 4 4 4 4 3 3 4 4 5 5 6 6
-6 -6 -6 -6 -5 -5 -5 -5 -4 -3 -3 -2 -1 -0 -0 1 2 3 4 4 4 4 4 4 5 4 4 4 4 4 5 5
-6 -6 -6 -6 -6 -6 -6 -5 -5 -4 -3 -3 -2 -1 -1 -0 0 2 3 4 3 4 4 4 4 5 5 4 4 4 4 4
-7 -7 -7 -7 -7 -7 -6 -6 -5 -5 -4 -4 -3 -2 -2 -1 -1 0 1 2 3 3 3 4 4 4 4 4 4 4 4 4
-7 -7 -7 -7 -7 -7 -7 -6 -6 -5 -5 -5 -5 -4 -3 -2 -2 -1 -0 1 1 2 3 3 3 3 4 4 4 4 3 4
-7 -7 -8 -8 -8 -8 -7 -7 -6 -6 -5 -5 -5 -5 -5 -4 -2 -2 -2 -0 1 1 2 2 3 3 3 3 4 4 4 3
-7 -7 -8 -8 -8 -8 -7 -7 -7 -6 -6 -5 -5 -5 -5 -5 -5 -4 -3 -2 -1 0 1 2 2 2 2 3 3 3 3 4
-7 -8 -7 -8 -8 -7 -7 -7 -7 -6 -6 -6 -6 -5 -5 -5 -5 -5 -5 -4 -3 -2 -0 1 1 1 2 2 3 3 3 3
-8 -7 -7 -7 -7 -7 -7 -7 -7 -7 -6 -6 -6 -6 -6 -5 -5 -5 -5 -6 -6 -4 -2 -1 0 0 1 2 2 2 3 3
-8 -8 -7 -7 -8 -8 -8 -7 -7 -7 -7 -7 -6 -6 -6 -6 -5 -5 -6 -6 -6 -6 -6 -5 -2 -1 -0 -0 1 1 2 2

GFSFLT1_700_temp_282.txt.gz
Temp
2 2 2 3 3 3 4 5 6 6 6 6 6 6 6 6 6 7 7 6 6 7 7 7 7 7 7 7 7 7 7 7
-1 -0 0 1 1 1 2 3 4 5 6 6 6 6 6 6 6 6 6 6 7 6 7 7 7 7 7 7 7 7 7 7
-2 -1 -1 -1 -1 -0 -0 1 2 3 5 6 6 6 6 6 6 6 6 6 7 7 7 7 7 7 7 7 7 7 7 7
-3 -3 -2 -2 -1 -1 -1 -1 0 1 3 4 5 5 5 5 5 5 6 6 5 7 7 7 7 7 7 7 7 7 7 7
-3 -3 -3 -2 -2 -2 -2 -1 -1 0 1 2 3 4 5 5 5 5 6 5 5 5 6 7 6 6 6 7 7 7 7 7
-4 -4 -3 -3 -3 -2 -2 -2 -1 -1 -0 1 2 3 4 4 5 5 5 5 5 3 6 6 5 5 6 5 6 6 6 6
-5 -4 -4 -4 -3 -3 -3 -2 -2 -2 -1 -0 0 2 3 3 3 4 4 4 4 4 3 5 4 5 5 5 5 5 6 6
-5 -5 -5 -4 -4 -4 -3 -3 -3 -2 -2 -1 -0 0 1 2 3 3 4 4 4 3 3 1 4 4 4 5 4 5 5 5
-6 -6 -5 -5 -5 -4 -4 -3 -3 -3 -3 -2 -1 -1 0 1 2 3 3 3 4 3 3 3 2 3 4 4 4 4 4 4
-7 -8 -6 -5 -5 -5 -5 -4 -4 -4 -3 -3 -2 -2 -1 -0 1 1 2 3 3 3 3 4 3 2 4 4 4 3 3 4
-8 -8 -7 -5 -5 -5 -5 -5 -5 -4 -4 -4 -3 -2 -2 -1 -0 1 1 2 2 3 3 3 3 3 3 2 3 3 3 3
-7 -7 -7 -7 -6 -6 -6 -5 -5 -5 -5 -4 -4 -3 -3 -2 -1 -0 0 1 1 1 2 3 3 3 3 2 2 2 3 3
-6 -7 -7 -7 -6 -6 -6 -6 -6 -5 -5 -5 -4 -4 -4 -3 -3 -2 -1 0 1 1 1 1 2 3 3 3 3 3 4 2
-6 -7 -7 -7 -7 -7 -7 -6 -6 -6 -6 -5 -5 -5 -4 -4 -4 -4 -3 -1 -0 0 1 1 1 1 2 3 3 3 3 4
-7 -7 -7 -7 -7 -7 -7 -7 -6 -6 -6 -6 -5 -5 -5 -4 -4 -5 -4 -4 -2 -1 -0 0 1 1 1 2 3 3 3 4
-7 -7 -7 -7 -7 -7 -7 -7 -6 -6 -6 -6 -6 -5 -5 -5 -5 -5 -5 -5 -5 -3 -2 -1 -1 -0 1 1 1 2 2 2
-7 -7 -7 -7 -7 -7 -7 -7 -7 -7 -6 -6 -6 -6 -6 -5 -5 -5 -5 -5 -5 -5 -5 -3 -3 -2 -1 1 1 1 1 2
-7 -7 -7 -7 -7 -7 -7 -7 -7 -7 -7 -7 -7 -7 -6 -6 -6 -6 -6 -6 -6 -5 -5 -6 -5 -3 -2 -1 -1 0 1 1
-8 -8 -8 -7 -7 -7 -7 -7 -7 -7 -8 -8 -8 -7 -7 -7 -7 -6 -6 -6 -6 -6 -6 -5 -6 -6 -4 -4 -3 -2 -2 -1

GFSFLT1_700_temp_288.txt.gz
Temp
1 2 3 3 3 3 3 4 5 6 6 6 6 6 6 6 6 6 6 5 5 6 5 5 5 6 6 6 7 6 6 6
-1 1 1 2 2 2 2 2 3 4 4 5 6 5 6 6 6 6 6 5 6 5 3 4 5 5 6 6 6 6 7 6
-2 -1 -1 -1 -0 0 1 1 1 1 2 3 4 5 4 5 5 5 5 6 5 5 4 3 4 5 5 6 5 6 6 6
-4 -4 -4 -2 -2 -1 -1 -0 1 0 0 0 2 2 2 3 3 4 4 5 5 5 4 4 4 4 4 5 5 5 5 6
-4 -4 -4 -4 -4 -2 -2 -2 -1 -0 -0 -0 -0 0 1 1 1 2 2 3 4 5 4 4 3 2 3 4 5 6 5 5
-4 -5 -5 -5 -5 -4 -2 -2 -2 -2 -1 -1 -1 -1 -1 -0 0 0 1 1 2 3 3 4 4 4 3 3 3 4 5 6
-4 -5 -5 -5 -5 -6 -5 -4 -3 -2 -2 -2 -1 -1 -1 -1 -1 -1 -0 0 0 2 2 2 4 4 4 3 3 3 3 4
-4 -5 -5 -6 -6 -6 -6 -5 -4 -3 -2 -2 -2 -2 -1 -1 -1 -1 -1 -0 -0 -0 1 1 2 3 3 4 3 3 3 2
-5 -5 -6 -5 -6 -7 -6 -4 -4 -3 -2 -3 -3 -3 -2 -2 -2 -2 -2 -1 -1 -1 -0 0 1 2 2 3 3 3 3 3
-5 -5 -6 -5 -7 -7 -6 -5 -4 -4 -4 -3 -3 -4 -3 -3 -3 -3 -3 -2 -2 -2 -1 -0 0 1 1 2 3 3 2 2
-5 -5 -6 -6 -7 -7 -6 -5 -4 -4 -4 -4 -4 -4 -4 -4 -3 -3 -3 -3 -3 -2 -2 -2 -1 -0 1 1 1 2 2 2
-5 -6 -6 -6 -7 -7 -6 -5 -4 -4 -4 -4 -4 -4 -4 -4 -4 -4 -3 -3 -4 -3 -3 -2 -2 -1 -0 0 1 1 1 1
-6 -6 -7 -7 -7 -7 -7 -6 -5 -5 -5 -5 -4 -4 -4 -4 -5 -4 -4 -4 -4 -4 -3 -3 -3 -2 -2 -1 0 0 1 0
-6 -6 -7 -7 -7 -7 -7 -7 -6 -5 -5 -5 -5 -5 -5 -5 -5 -5 -5 -4 -4 -4 -4 -3 -3 -3 -3 -2 -1 -0 0 1
-6 -6 -7 -7 -7 -8 -8 -8 -8 -6 -5 -5 -6 -6 -5 -5 -6 -6 -5 -5 -5 -5 -4 -4 -3 -3 -3 -3 -3 -2 -1 -0
-6 -6 -6 -7 -7 -8 -8 -8 -8 -7 -6 -6 -6 -6 -6 -6 -6 -6 -6 -6 -6 -5 -5 -5 -4 -4 -3 -4 -4 -4 -3 -2
-6 -6 -6 -7 -7 -8 -8 -8 -8 -7 -7 -6 -6 -6 -6 -6 -7 -7 -7 -7 -7 -7 -6 -6 -5 -5 -4 -4 -4 -4 -4 -4
-6 -6 -7 -7 -7 -7 -7 -8 -9 -8 -7 -7 -7 -7 -7 -7 -7 -7 -7 -7 -7 -7 -7 -7 -6 -6 -6 -5 -5 -5 -5 -4
-6 -6 -7 -7 -7 -8 -8 -8 -8 -8 -8 -8 -7 -7 -7 -8 -8 -8 -8 -8 -8 -8 -8 -7 -7 -7 -6 -6 -6 -5 -5 -5

GFSFLT1_700_temp_294.txt.gz
Temp
5 5 4 4 3 4 4 4 4 4 4 4 4 4 4 4 5 5 5 5 5 4 4 5 5 4 4 4 4 5 5 5
3 4 4 4 4 4 4 3 2 3 3 2 2 2 2 2 3 4 4 4 5 5 4 4 3 5 4 2 4 5 5 4
3 3 3 3 3 3 2 3 4 2 2 1 1 1 0 1 1 2 2 3 3 4 4 4 4 4 4 4 4 5 5 3
2 2 2 2 2 2 2 3 3 2 0 -1 -1 -1 -1 -1 -0 -0 0 1 1 1 2 2 3 3 4 4 4 3 4 4
2 2 2 1 1 1 1 1 1 0 -1 -2 -2 -2 -1 -1 -1 -1 -1 -0 -0 -0 0 0 1 1 2 3 3 2 2 3
1 1 1 1 1 0 -0 0 -1 -1 -2 -3 -3 -2 -2 -2 -1 -1 -1 -1 -1 -0 -0 -0 -0 -0 1 1 2 2 2 2
0 -0 -0 0 0 -0 -1 -1 -1 -2 -2 -3 -3 -3 -2 -2 -2 -1 -1 -1 -2 -1 -1 -1 -1 -1 -1 -0 1 1 2 2
0 -0 -0 -1 -0 -1 -1 -1 -2 -2 -3 -3 -3 -3 -3 -2 -2 -2 -2 -2 -2 -2 -2 -1 -2 -2 -1 -1 -0 0 1 1
-0 -0 -1 -1 -1 -1 -1 -2 -2 -2 -3 -3 -3 -3 -3 -3 -3 -3 -3 -3 -3 -3 -3 -3 -2 -2 -2 -2 -1 -1 -0 0
-1 -1 -1 -1 -2 -1 -1 -1 -2 -2 -2 -3 -3 -3 -3 -3 -3 -3 -3 -3 -3 -3 -3 -4 -3 -3 -3 -3 -2 -1 -1 -1
-2 -2 -2 -2 -2 -2 -3 -2 -2 -2 -3 -3 -3 -3 -3 -4 -4 -4 -4 -4 -4 -4 -4 -4 -4 -4 -3 -3 -3 -2 -2 -2
-2 -2 -2 -2 -2 -3 -3 -4 -4 -4 -4 -4 -4 -4 -4 -4 -4 -4 -4 -4 -4 -5 -5 -4 -5 -5 -4 -4 -4 -3 -3 -3
-4 -4 -3 -4 -4 -4 -5 -5 -5 -5 -4 -4 -4 -5 -5 -4 -5 -5 -5 -5 -5 -5 -5 -5 -5 -6 -5 -5 -4 -4 -4 -3
-4 -4 -4 -5 -5 -5 -6 -6 -6 -5 -6 -6 -6 -6 -5 -6 -6 -6 -6 -6 -6 -6 -6 -6 -6 -6 -6 -6 -5 -5 -5 -4
-5 -5 -5 -5 -6 -6 -6 -6 -6 -6 -7 -6 -6 -6 -7 -6 -6 -6 -6 -6 -6 -7 -7 -7 -7 -7 -7 -7 -6 -6 -6 -6
-5 -5 -5 -6 -6 -6 -6 -6 -7 -7 -7 -7 -7 -6 -7 -7 -7 -7 -7 -7 -7 -7 -7 -7 -7 -7 -7 -7 -7 -7 -7 -7
-4 -5 -5 -5 -6 -6 -7 -7 -7 -7 -7 -7 -7 -7 -7 -7 -7 -8 -7 -7 -7 -7 -8 -8 -8 -8 -8 -8 -8 -7 -7 -7
-5 -5 -6 -6 -6 -6 -6 -6 -7 -7 -8 -8 -8 -8 -8 -8 -8 -8 -8 -8 -8 -8 -8 -8 -8 -8 -9 -8 -8 -8 -7 -7
-5 -5 -6 -6 -6 -6 -6 -7 -7 -7 -8 -8 -8 -9 -9 -9 -9 -8 -8 -8 -8 -8 -8 -8 -9 -9 -8 -8 -8 -8 -7 -7

GFSFLT1_700_temp_297.txt.gz
Temp
3 4 4 3 3 3 3 3 4 4 3 3 3 3 3 3 3 3 4 4 4 4 4 4 4 5 4 4 3 4 4 4
3 3 3 3 3 3 3 3 3 3 3 2 1 1 2 2 2 2 2 2 3 3 4 4 4 4 5 5 3 3 3 3
2 2 2 2 2 3 3 3 3 3 3 2 1 0 -0 -1 -0 -0 0 1 1 1 2 2 3 3 3 4 4 4 3 3
2 2 2 1 1 2 2 2 2 2 1 -0 -2 -2 -2 -2 -1 -1 -1 -0 -0 0 0 1 1 2 2 2 3 3 3 3
1 1 1 1 1 1 1 1 1 0 0 -0 -1 -1 -2 -2 -2 -2 -1 -1 -1 -0 -0 0 0 0 1 1 1 1 3 4
1 0 1 1 1 1 1 0 0 -0 -1 -1 -1 -1 -2 -2 -2 -2 -2 -2 -1 -1 -1 -0 -0 -0 0 0 1 0 1 1
-0 -0 -0 -0 -0 0 0 -0 -0 -0 -1 -2 -2 -2 -2 -2 -2 -2 -2 -2 -2 -2 -2 -1 -1 -1 -0 -0 -0 0 0 -0
-1 -1 -1 -1 -1 -1 -0 -1 -1 -1 -2 -2 -2 -2 -2 -2 -2 -3 -3 -3 -2 -2 -2 -2 -2 -2 -1 -1 -1 -0 -0 -0
-1 -1 -1 -1 -1 -1 -1 -1 -1 -2 -2 -2 -2 -2 -3 -2 -2 -2 -2 -3 -3 -3 -3 -3 -3 -3 -3 -2 -2 -2 -1 -1
-1 -1 -1 -1 -2 -2 -2 -2 -2 -2 -2 -3 -3 -3 -2 -3 -3 -3 -3 -3 -3 -3 -3 -3 -3 -3 -3 -3 -3 -3 -2 -2
-1 -1 -1 -1 -2 -3 -3 -2 -3 -3 -3 -4 -4 -3 -3 -3 -3 -4 -4 -4 -4 -4 -4 -3 -3 -4 -4 -4 -4 -3 -3 -3
-2 -2 -3 -3 -3 -3 -4 -4 -4 -4 -4 -4 -4 -4 -4 -4 -4 -4 -4 -4 -4 -4 -4 -4 -4 -4 -4 -4 -5 -5 -4 -4
-3 -3 -4 -4 -4 -5 -5 -5 -5 -5 -5 -4 -4 -4 -5 -5 -5 -4 -4 -5 -5 -5 -5 -5 -5 -5 -5 -5 -5 -5 -5 -5
-3 -4 -4 -5 -5 -6 -6 -6 -6 -6 -6 -6 -6 -5 -5 -6 -6 -6 -6 -6 -6 -6 -6 -6 -6 -6 -6 -6 -6 -6 -6 -6
-4 -4 -4 -4 -5 -5 -5 -6 -6 -6 -6 -6 -6 -6 -6 -6 -6 -6 -7 -7 -7 -7 -7 -7 -7 -7 -6 -6 -6 -6 -6 -6
-4 -4 -5 -5 -5 -5 -5 -6 -6 -6 -6 -6 -7 -7 -7 -8 -8 -7 -7 -7 -7 -7 -7 -7 -7 -7 -7 -7 -7 -6 -6 -7
-4 -4 -5 -5 -5 -5 -6 -6 -6 -6 -7 -7 -7 -7 -8 -8 -8 -9 -9 -9 -8 -8 -8 -8 -8 -8 -8 -7 -7 -7 -7 -8
-4 -4 -5 -5 -5 -6 -6 -6 -6 -7 -7 -7 -7 -7 -8 -8 -8 -9 -9 -9 -9 -9 -9 -8 -8 -8 -8 -8 -8 -8 -8 -8
-5 -5 -5 -5 -5 -5 -6 -6 -6 -6 -7 -7 -7 -8 -8 -9 -9 -9 -9 -9 -9 -9 -9 -9 -9 -9 -8 -8 -8 -8 -8 -8

GFSFLT1_700_temp_300.txt.gz
Temp
3 3 3 3 3 3 3 4 4 4 4 4 3 2 2 2 2 2 3 3 3 3 3 3 3 4 4 4 4 3 3 3
2 2 2 2 2 2 2 2 3 3 3 2 2 1 1 1 1 1 1 1 2 2 2 2 2 3 3 4 4 4 4 3
1 1 1 1 1 1 2 2 2 2 2 2 2 1 0 -0 -0 -1 -0 -0 0 1 1 1 1 2 2 2 3 3 3 3
1 1 0 1 0 0 1 1 1 1 1 0 -0 -1 -1 -1 -1 -1 -1 -1 -1 -1 -0 -0 0 0 1 1 1 2 2 2
1 0 1 1 0 0 0 -0 0 0 0 0 -0 -0 -0 -1 -1 -1 -1 -1 -1 -1 -1 -1 -0 -0 -0 0 0 1 1 1
0 0 0 0 0 0 -0 -1 -1 -1 -0 -0 0 -0 -1 -1 -1 -2 -2 -2 -1 -1 -1 -1 -1 -1 -0 -0 -0 0 0 1
-0 -0 -0 -0 -0 -0 -1 -1 -2 -1 -1 -1 -1 -0 -1 -1 -1 -2 -2 -2 -2 -2 -1 -1 -1 -1 -1 -1 -1 -0 -0 -0
-1 -1 -1 -1 -1 -1 -1 -2 -2 -2 -2 -2 -1 -1 -1 -1 -1 -1 -1 -2 -2 -2 -2 -2 -1 -1 -1 -1 -1 -1 -1 -1
-1 -1 -1 -1 -2 -2 -2 -2 -2 -2 -3 -3 -3 -3 -2 -2 -2 -2 -2 -1 -1 -2 -2 -2 -2 -2 -2 -2 -2 -2 -2 -2
-1 -1 -1 -1 -2 -2 -2 -2 -2 -3 -3 -4 -4 -4 -4 -3 -3 -3 -3 -3 -3 -3 -2 -2 -2 -3 -3 -3 -2 -2 -2 -2
-1 -2 -2 -2 -2 -3 -3 -2 -3 -3 -3 -3 -4 -4 -4 -4 -4 -4 -4 -4 -4 -3 -3 -3 -3 -3 -3 -3 -3 -3 -3 -3
-2 -2 -3 -3 -3 -3 -3 -3 -3 -4 -4 -4 -4 -4 -4 -4 -5 -5 -5 -5 -5 -5 -4 -4 -4 -4 -4 -4 -4 -4 -4 -4
-3 -3 -3 -3 -3 -4 -4 -4 -5 -4 -4 -5 -5 -5 -5 -5 -5 -6 -6 -6 -6 -6 -6 -6 -5 -6 -6 -5 -5 -5 -5 -5
-3 -3 -3 -4 -4 -4 -5 -5 -5 -5 -5 -6 -6 -6 -6 -6 -6 -7 -7 -7 -7 -7 -7 -7 -7 -7 -6 -6 -6 -6 -6 -6
-3 -3 -4 -4 -4 -4 -4 -5 -5 -5 -5 -6 -6 -6 -7 -6 -7 -7 -7 -7 -8 -8 -8 -7 -7 -7 -7 -7 -7 -7 -6 -6
-3 -4 -4 -4 -5 -5 -5 -5 -5 -6 -6 -7 -7 -7 -7 -7 -7 -7 -8 -8 -8 -8 -8 -8 -8 -8 -8 -8 -8 -7 -7 -7
-4 -4 -5 -5 -5 -5 -5 -6 -5 -5 -6 -7 -7 -7 -7 -7 -7 -8 -8 -8 -9 -9 -9 -9 -9 -9 -9 -8 -9 -8 -8 -7
-4 -5 -5 -5 -6 -5 -5 -5 -5 -6 -6 -6 -7 -7 -7 -7 -7 -8 -8 -8 -8 -9 -9 -9 -10 -9 -9 -9 -9 -9 -8 -8
-5 -6 -6 -5 -5 -5 -5 -6 -6 -6 -6 -6 -7 -7 -7 -7 -7 -8 -8 -8 -9 -9 -9 -10 -10 -10 -10 -9 -9 -9 -9 -8